Location: Sagn�
(15.2046°N, 12.7898°W)
Time: 14:08:00
(UTC+00:00)

Feng Yun 1-1 Rocket - Pass Details

Date: 08 May 2021
Orbit: 830 x 933 km, 99.2° (Epoch: 14 June)

Event Time Altitude Azimuth Distance (km) Brightness Sun altitude
Rises 19:24:32 0° 161° (SSE) 3,440 7.0 -4.0°
Reaches altitude 10° 19:26:56 10° 159° (SSE) 2,489 6.3 -4.5°
Maximum altitude 19:32:25 71° 76° (ENE) 893 4.2 -5.8°
Drops below altitude 10° 19:37:47 10° 353° (N) 2,442 7.0 -7.0°
Sets 19:40:08 0° 351° (N) 3,370 7.8 -7.5°
